Regional Weather Roundup
Issued by NWS

Home | Current Version | Previous Version | Text Only | Print | Product List | Glossary On
Versions: 1 2 3 4 5 6 7 8 9 10 11 12 13 14 15 16 17 18 19 20 21 22 23 24 25 26 27 28 29 30 31 32 33 34 35 36 37 38 39 40 41 42 43 44 45 46 47 48 49 50
000
ASUS42 KKEY 231710
RWRKEY

FLORIDA REGIONAL WEATHER ROUNDUP FOR THE FLORIDA KEYS
NATIONAL WEATHER SERVICE KEY WEST FLORIDA
1200 PM EST MON JAN 23 2017

...SOUTH FLORIDA AND THE KEYS...

CITY           SKY/WX    TMP DP  RH WIND       PRES   REMARKS
FORT MYERS     CLOUDY    74  59  59 W22G30    29.64S
SW REGIONAL AP LGT RAIN  72  58  61 NW21G30   29.65S
NAPLES         MOSUNNY   75  58  55 W24G33    29.67S
MIAMI          MOSUNNY   79  57  46 W15G30    29.63F
WEST KENDALL   MOSUNNY   78  56  46 W36G43    29.64F
HOMESTEAD      MOSUNNY   76  58  54 W28G33    29.64F
MARATHON       LGT RAIN  76  63  64 W18G36    29.72S
BOCA CHICA NAS MOSUNNY   76  60  57 W26G40    29.73F
KEY WEST INTL  MOSUNNY   77  61  57 W25G36    29.73

...INTERNATIONAL WEATHER...

CITY           SKY/WX    TMP DP  RH WIND       PRES   REMARKS
NASSAU BAHAMAS PTSUNNY   73  66  78 SW12      29.66F
CANCUN MEXICO  MOSUNNY   79  57  47 NW21      29.93F
COZUMEL MEXICO MOSUNNY   77  61  57 NW17      29.94S

ADJACENT COASTAL WATERS...

STATION/POSITION TIME  SKY/WX   TEMP    WIND        PRES    WAVE
                                AIR SEA DIR/SP/G            HT/PER
                 (UTC)          (F)     (DEG/KT/KT) (MB)    (FT/S)
PULASKI SHOAL LI 1700            74     290/ 25/ 29 1006.8F
SAND KEY         1650            74     300/ 33/ 38 1007.3F
LONG KEY         1600            73 74  270/ 28/ 32 1006.3F
MOLASSES REEF    1600            74 74  270/ 32/ 36 1004.7F
FOWEY ROCKS      1600            70 74  260/ 23/ 25 1005.4R

$$



USA.gov is the U.S. government's official web portal to all federal, state and local government web resources and services.